Date_and_time,latitude,longitude,wind_speed,RelWindDirFrom,WindDirFrom,air_pressure,air_temperature,relative_humidity,Temp,platform_speed_wrt_ground,air_pressure_at_mean_sea_level,platform_orientation
2018-10-15 00:00,50.63042,-96.98074,11.8,16.0,335,992.00,-0.3,98,4.05,0.0,1020.00,167.4
2018-10-15 00:00,50.6304216666667,-96.98074,9.7,9.7,341,992.11,-0.3,99,4.05,0.0,1020.11,159.8
2018-10-15 00:10,50.6304216666667,-96.98074,11.0,15.6,337,992.15,-0.4,99,4.05,0.0,1020.14,159.8
2018-10-15 00:20,50.630425,-96.9807416666667,12.2,18.2,336,992.20,-0.4,99,4.05,0.0,1020.20,159.8
2018-10-15 00:30,50.630425,-96.9807433333333,10.3,15.5,335,992.44,-0.4,99,4.03,0.0,1020.45,159.8
2018-10-15 00:40,50.6304266666667,-96.980745,10.6,15.2,335,992.55,-0.4,99,4.03,0.0,1020.57,159.8
2018-10-15 00:50,50.6304266666667,-96.980745,11.7,18.7,336,992.58,-0.5,99,4.03,0.0,1020.61,159.8
2018-10-15 01:00,50.630425,-96.9807466666667,12.3,17.3,337,992.63,-0.5,99,4.03,0.0,1020.66,90.0
2018-10-15 01:10,50.6304233333333,-96.9807483333333,9.9,16.7,331,992.82,-0.7,99,4.05,0.0,1020.87,90.0
2018-10-15 01:20,50.6304233333333,-96.9807483333333,11.1,16.7,333,992.85,-0.8,99,4.06,0.0,1020.91,90.0
2018-10-15 01:30,50.6304216666667,-96.98075,11.0,15.7,337,992.88,-0.8,97,4.06,0.0,1020.94,90.0
2018-10-15 01:40,50.63042,-96.98075,10.3,15.0,332,992.87,-1.0,96,4.07,0.0,1020.95,90.0
2018-10-15 01:50,50.6304166666667,-96.9807583333333,11.1,17.3,331,992.87,-1.1,95,4.07,0.0,1020.95,90.0
2018-10-15 02:00,50.6304216666667,-96.9807483333333,10.4,13.6,329,992.88,-1.1,94,4.05,0.0,1020.96,270.0
2018-10-15 02:10,50.6304233333333,-96.9807533333333,10.0,15.0,333,992.92,-1.2,93,4.02,0.0,1021.00,270.0
2018-10-15 02:20,50.6304233333333,-96.980755,10.0,15.0,332,992.92,-1.2,93,3.99,0.0,1021.01,270.0
2018-10-15 02:30,50.630425,-96.980755,8.6,12.3,330,992.94,-1.3,92,3.97,0.0,1021.03,270.0
2018-10-15 02:40,50.630425,-96.9807566666667,8.6,12.4,326,992.92,-1.4,92,3.98,0.0,1021.02,270.0
2018-10-15 02:50,50.630425,-96.9807566666667,8.4,11.9,324,992.87,-1.4,92,3.96,0.0,1020.97,270.0
2018-10-15 03:00,50.6304233333333,-96.9807566666667,8.2,12.2,327,992.95,-1.4,92,3.94,0.0,1021.06,305.3
2018-10-15 03:10,50.6304233333333,-96.9807566666667,8.5,11.7,325,992.89,-1.5,91,3.91,0.0,1021.01,305.3
2018-10-15 03:20,50.6304233333333,-96.9807566666667,8.7,13.2,323,992.89,-1.5,91,3.90,0.0,1021.02,305.3
2018-10-15 03:30,50.6304233333333,-96.980755,7.1,11.8,319,992.97,-1.6,92,3.87,0.0,1021.12,305.3
2018-10-15 03:40,50.6304133333333,-96.9807366666667,7.0,10.1,318,993.01,-1.6,92,3.85,0.0,1021.16,305.3
2018-10-15 03:50,50.6304216666667,-96.9807516666667,7.5,11.2,318,993.04,-1.7,90,3.84,0.0,1021.20,305.3
2018-10-15 04:00,50.63042,-96.98075,7.6,12.0,316,993.09,-1.8,89,3.83,0.0,1021.25,192.6
2018-10-15 04:10,50.6304166666667,-96.9807516666667,8.1,11.2,305,993.15,-1.9,89,3.83,0.0,1021.32,192.6
2018-10-15 04:20,50.630415,-96.98075,7.9,12.3,303,993.14,-2.1,93,3.82,0.0,1021.33,192.6
2018-10-15 04:30,50.6303933333333,-96.98076,8.4,13.7,309,993.17,-2.2,95,3.82,0.0,1021.37,192.6
2018-10-15 04:40,50.6304133333333,-96.9807383333333,9.5,13.6,309,993.16,-2.3,95,3.82,0.0,1021.37,192.6
2018-10-15 04:50,50.63042,-96.9807566666667,9.1,14.5,311,993.19,-2.4,95,3.82,0.0,1021.40,192.6
2018-10-15 05:00,50.630415,-96.98076,9.9,14.9,314,993.26,-2.5,96,3.81,0.0,1021.48,192.6
2018-10-15 05:10,50.630415,-96.9807616666667,9.4,13.6,311,993.28,-2.6,98,3.81,0.0,1021.51,192.6
2018-10-15 05:20,50.630415,-96.9807583333333,9.2,16.1,311,993.28,-2.8,99,3.80,0.0,1021.53,192.6
2018-10-15 05:30,50.6304183333333,-96.98076,9.4,13.7,315,993.28,-3.0,99,3.80,0.0,1021.54,192.6
2018-10-15 05:40,50.6304183333333,-96.9807583333333,8.1,12.4,317,993.25,-3.0,98,3.79,0.0,1021.51,192.6
2018-10-15 05:50,50.63042,-96.9807583333333,8.5,12.9,315,993.20,-3.1,95,3.79,0.0,1021.46,192.6
2018-10-15 06:00,50.630415,-96.9807566666667,7.3,10.5,309,993.13,-3.2,94,3.79,0.0,1021.40,360.0
2018-10-15 06:10,50.630425,-96.980775,7.7,11.8,308,992.97,-3.3,94,3.79,0.0,1021.26,360.0
2018-10-15 06:20,50.6304166666667,-96.9807516666667,7.0,11.3,312,992.93,-3.4,93,3.79,0.0,1021.23,360.0
2018-10-15 06:30,50.63042,-96.980755,6.2,9.3,307,992.86,-3.5,93,3.79,0.0,1021.17,360.0
2018-10-15 06:40,50.6304233333333,-96.980755,5.3,7.6,297,992.92,-3.6,94,3.78,0.0,1021.24,360.0
2018-10-15 06:50,50.6304233333333,-96.9807533333333,5.6,8.5,293,992.88,-3.7,95,3.78,0.0,1021.21,360.0
2018-10-15 07:00,50.630425,-96.9807516666667,6.8,10.9,295,992.87,-3.9,94,3.78,0.0,1021.21,360.0
2018-10-15 07:10,50.6304233333333,-96.9807533333333,5.6,7.9,290,992.85,-4.0,94,3.78,0.0,1021.21,360.0
2018-10-15 07:20,50.6304233333333,-96.9807533333333,5.5,8.3,291,992.77,-4.0,94,3.76,0.0,1021.14,360.0
2018-10-15 07:30,50.6304233333333,-96.9807533333333,6.7,10.0,294,992.71,-3.9,92,3.76,0.0,1021.07,360.0
2018-10-15 07:40,50.6304233333333,-96.980755,4.9,8.6,286,992.69,-3.9,92,3.74,0.0,1021.05,360.0
2018-10-15 07:50,50.6304233333333,-96.980755,4.7,7.9,285,992.61,-3.8,92,3.72,0.0,1020.98,360.0
2018-10-15 08:00,50.6304233333333,-96.9807566666667,6.5,10.9,294,992.42,-3.7,90,3.71,0.0,1020.78,360.0
2018-10-15 08:10,50.6304233333333,-96.9807583333333,5.2,8.2,286,992.36,-3.6,90,3.71,0.0,1020.72,360.0
2018-10-15 08:20,50.6304233333333,-96.9807566666667,4.8,7.5,270,992.30,-3.6,91,3.71,0.0,1020.66,360.0
2018-10-15 08:30,50.6304233333333,-96.9807566666667,5.8,8.5,278,992.19,-3.6,92,3.68,0.0,1020.55,360.0
2018-10-15 08:40,50.6304216666667,-96.9807566666667,6.6,10.0,276,992.10,-3.6,91,3.66,0.0,1020.47,360.0
2018-10-15 08:50,50.630405,-96.98072,7.2,11.2,262,992.07,-3.7,89,3.65,0.0,1020.46,360.0
2018-10-15 09:00,50.6304166666667,-96.98075,6.5,9.9,261,991.99,-3.9,88,3.66,0.0,1020.38,90.0
2018-10-15 09:10,50.6304166666667,-96.9807416666667,4.5,9.7,274,991.84,-3.9,88,3.65,0.0,1020.23,90.0
2018-10-15 09:20,50.6304166666667,-96.9807416666667,3.4,6.0,265,991.73,-3.8,88,3.64,0.0,1020.11,90.0
2018-10-15 09:30,50.6304333333333,-96.9807516666667,3.4,5.7,250,991.61,-3.8,88,3.63,0.0,1019.98,90.0
2018-10-15 09:40,50.630425,-96.98074,4.3,6.2,233,991.50,-3.8,88,3.61,0.0,1019.87,90.0
2018-10-15 09:50,50.6304233333333,-96.980745,5.1,7.4,227,991.37,-3.7,89,3.62,0.0,1019.72,90.0
2018-10-15 10:00,50.6304233333333,-96.9807433333333,4.8,6.6,226,991.22,-3.6,89,3.64,0.0,1019.56,90.0
2018-10-15 10:10,50.630425,-96.9807416666667,6.3,11.7,236,991.08,-3.4,87,3.63,0.0,1019.40,90.0
2018-10-15 10:20,50.630425,-96.9807416666667,5.1,7.2,236,990.96,-3.4,86,3.64,0.0,1019.28,90.0
2018-10-15 10:30,50.6304333333333,-96.9807666666667,6.0,9.5,237,990.86,-3.3,85,3.64,0.0,1019.17,90.0
2018-10-15 10:40,50.6304266666667,-96.9807583333333,7.2,10.5,227,990.70,-3.3,84,3.63,0.0,1019.01,90.0
2018-10-15 10:50,50.6304283333333,-96.9807516666667,8.7,12.4,237,990.64,-3.3,83,3.63,0.0,1018.96,90.0
2018-10-15 11:00,50.6304266666667,-96.980795,7.3,11.1,226,990.47,-3.2,85,3.61,0.0,1018.78,270.0
2018-10-15 11:10,50.6304183333333,-96.9807566666667,9.7,13.6,221,990.32,-3.3,84,3.60,0.0,1018.62,270.0
2018-10-15 11:20,50.6304183333333,-96.9807583333333,11.5,15.3,218,990.22,-3.4,82,3.60,0.0,1018.53,270.0
2018-10-15 11:30,50.6304266666667,-96.9807616666667,10.7,16.5,222,990.21,-3.4,81,3.58,0.0,1018.52,270.0
2018-10-15 11:40,50.630405,-96.9807416666667,9.8,14.9,230,990.11,-3.4,81,3.57,0.0,1018.41,270.0
2018-10-15 11:50,50.630415,-96.98075,8.2,11.9,228,989.96,-3.5,81,3.57,0.0,1018.25,270.0
2018-10-15 12:00,50.63042,-96.980765,9.8,14.3,230,989.93,-3.5,79,3.57,0.0,1018.21,305.3
2018-10-15 12:10,50.6304166666667,-96.9807483333333,8.2,11.8,221,989.90,-3.4,79,3.56,0.0,1018.18,305.3
2018-10-15 12:20,50.6304183333333,-96.98075,8.2,12.2,218,989.78,-3.3,79,3.55,0.0,1018.04,305.3
2018-10-15 12:30,50.63042,-96.98075,9.9,13.7,220,989.60,-3.3,78,3.56,0.0,1017.85,305.3
2018-10-15 12:40,50.63042,-96.9807516666667,9.7,13.2,217,989.47,-3.3,79,3.53,0.0,1017.72,305.3
2018-10-15 12:50,50.630405,-96.9807566666667,8.6,13.0,220,989.41,-3.4,80,3.53,0.0,1017.66,305.3
2018-10-15 13:00,50.6304066666667,-96.9807516666667,6.9,10.4,216,989.26,-3.7,82,3.50,0.0,1017.52,360.0
2018-10-15 13:10,50.6304133333333,-96.9807483333333,7.8,10.7,198,988.98,-3.7,83,3.48,0.0,1017.25,360.0
2018-10-15 13:20,50.6304166666667,-96.9807483333333,9.7,12.5,199,988.75,-3.8,82,3.48,0.0,1017.01,360.0
2018-10-15 13:30,50.6304166666667,-96.9807516666667,11.3,14.2,193,988.49,-4.0,83,3.47,0.0,1016.75,360.0
2018-10-15 13:40,50.630415,-96.9807533333333,11.8,14.5,193,988.15,-4.1,84,3.47,0.0,1016.42,360.0
2018-10-15 13:50,50.6304216666667,-96.980755,12.7,16.8,190,987.88,-4.2,84,3.47,0.0,1016.14,360.0
2018-10-15 14:00,50.6304233333333,-96.98076,12.7,16.4,196,987.74,-4.2,84,3.45,0.0,1016.00,90.0
2018-10-15 14:10,50.6304216666667,-96.9807633333333,12.7,16.6,193,987.56,-4.3,84,3.44,0.0,1015.81,90.0
2018-10-15 14:20,50.6304216666667,-96.9807616666667,13.7,17.7,194,987.29,-4.1,84,3.44,0.0,1015.52,90.0
2018-10-15 14:30,50.6304216666667,-96.9807616666667,13.7,18.3,192,987.00,-4.0,84,3.42,0.0,1015.22,90.0
2018-10-15 14:40,50.6304216666667,-96.98076,15.1,18.6,190,986.65,-3.8,83,3.42,0.0,1014.85,90.0
2018-10-15 14:50,50.6304216666667,-96.9807616666667,15.3,20.8,190,986.43,-3.6,82,3.42,0.0,1014.63,90.0
2018-10-15 15:00,50.6304216666667,-96.98076,17.1,22.6,188,986.00,-3.5,81,3.42,0.0,1014.18,90.0
2018-10-15 15:10,50.63042,-96.98076,17.1,21.6,190,985.74,-3.4,80,3.42,0.0,1013.91,90.0
2018-10-15 15:20,50.63042,-96.98076,17.0,22.9,191,985.52,-3.2,80,3.41,0.0,1013.69,90.0
2018-10-15 15:30,50.6304566666667,-96.98078,18.6,23.4,187,985.27,-3.1,80,3.40,0.0,1013.44,90.0
2018-10-15 15:40,50.6304316666667,-96.9807416666667,17.8,23.3,190,985.03,-3.0,79,3.40,0.0,1013.19,90.0
2018-10-15 15:50,50.6304283333333,-96.98074,17.0,22.6,188,984.68,-2.6,77,3.40,0.0,1012.81,90.0
2018-10-15 16:00,50.6304283333333,-96.9807433333333,16.9,21.2,181,984.33,-2.3,77,3.40,0.0,1012.43,360.0
2018-10-15 16:10,50.6304416666667,-96.98075,17.9,21.9,179,984.01,-2.1,76,3.40,0.0,1012.09,360.0
2018-10-15 16:20,50.6304266666667,-96.9807616666667,18.0,21.9,178,983.71,-1.9,75,3.41,0.0,1011.76,360.0
2018-10-15 16:30,50.63041,-96.9807716666667,18.8,24.4,175,983.39,-1.6,76,3.40,0.0,1011.41,360.0
2018-10-15 16:40,50.630415,-96.98076,19.2,23.4,177,983.02,-1.3,74,3.40,0.0,1011.00,360.0
2018-10-15 16:50,50.6304183333333,-96.9807533333333,18.5,22.7,178,982.75,-1.2,73,3.40,0.0,1010.72,360.0
2018-10-15 17:00,50.63042,-96.98075,18.5,23.7,178,982.47,-1.0,72,3.40,0.0,1010.41,167.4
2018-10-15 17:10,50.63042,-96.980755,16.9,22.3,180,982.45,-0.8,72,3.40,0.0,1010.37,167.4
2018-10-15 17:20,50.6304216666667,-96.980755,14.9,20.2,184,982.39,-0.6,70,3.41,0.0,1010.29,167.4
2018-10-15 17:30,50.6304233333333,-96.9807566666667,15.0,19.0,187,982.27,-0.3,69,3.42,0.0,1010.15,167.4
2018-10-15 17:40,50.6304216666667,-96.9807583333333,12.9,18.3,197,982.46,-0.2,71,3.42,0.0,1010.31,167.4
2018-10-15 17:50,50.630425,-96.9807666666667,16.8,25.8,201,982.30,-0.1,70,3.42,0.0,1010.13,167.4
2018-10-15 18:00,50.6304283333333,-96.98075,16.5,23.5,200,982.06,0.0,71,3.42,0.0,1009.87,48.3
2018-10-15 18:10,50.6304633333333,-96.980745,15.9,23.5,199,981.78,0.0,72,3.42,0.0,1009.57,48.3
2018-10-15 18:20,50.6304466666667,-96.9807333333333,18.5,24.7,201,981.37,-0.1,73,3.41,0.0,1009.14,48.3
2018-10-15 18:30,50.63044,-96.9807366666667,17.8,24.1,196,980.87,-0.2,76,3.41,0.0,1008.61,48.3
2018-10-15 18:40,50.63044,-96.9807433333333,16.4,23.1,195,980.68,-0.1,79,3.41,0.0,1008.41,48.3
2018-10-15 18:50,50.6304366666667,-96.9807433333333,19.3,25.7,197,980.26,-0.0,79,3.41,0.0,1007.96,48.3
2018-10-15 19:00,50.6304366666667,-96.9807433333333,17.7,25.2,198,979.90,0.1,81,3.41,0.0,1007.58,360.0
2018-10-15 19:10,50.630435,-96.9807433333333,17.7,27.2,196,979.59,0.2,81,3.41,0.0,1007.24,360.0
2018-10-15 19:20,50.630435,-96.980745,17.5,26.2,195,979.09,0.3,82,3.41,0.0,1006.71,360.0
2018-10-15 19:30,50.6304333333333,-96.980765,18.1,23.8,196,978.67,0.3,86,3.42,0.0,1006.27,360.0
2018-10-15 19:40,50.6304283333333,-96.9807366666667,19.7,25.8,194,978.41,0.1,92,3.41,0.0,1006.01,360.0
2018-10-15 19:50,50.6304133333333,-96.980755,15.8,22.2,195,978.48,0.2,95,3.40,0.0,1006.07,360.0
2018-10-15 20:00,50.6304133333333,-96.98075,16.2,23.3,197,978.30,0.4,96,3.40,0.0,1005.87,142.0
2018-10-15 20:10,50.6304133333333,-96.9807516666667,16.7,22.8,198,978.16,0.4,98,3.41,0.0,1005.74,142.0
2018-10-15 20:20,50.6304133333333,-96.9807516666667,17.5,26.8,202,978.14,0.5,99,3.41,0.0,1005.71,142.0
2018-10-15 20:30,50.630415,-96.980755,16.0,22.7,207,978.29,0.6,99,3.40,0.0,1005.86,142.0
2018-10-15 20:40,50.6304166666667,-96.980755,15.8,21.1,208,978.24,0.6,99,3.39,0.0,1005.80,142.0
2018-10-15 20:50,50.6304166666667,-96.980755,14.9,21.0,210,978.19,0.7,99,3.39,0.0,1005.74,142.0
2018-10-15 21:00,50.6304183333333,-96.9807566666667,13.8,19.8,210,978.01,1.0,99,3.39,0.0,1005.53,194.5
2018-10-15 21:10,50.63043,-96.98076,13.7,20.2,209,977.95,1.2,99,3.40,0.0,1005.45,194.5
2018-10-15 21:20,50.6304216666667,-96.98076,13.0,17.5,215,978.04,1.5,96,3.40,0.0,1005.53,194.5
2018-10-15 21:30,50.6304233333333,-96.98076,13.0,18.0,216,978.04,1.9,93,3.41,0.0,1005.52,194.5
2018-10-15 21:40,50.630425,-96.9807616666667,11.7,17.2,215,977.99,2.3,89,3.41,0.0,1005.45,194.5
2018-10-15 21:50,50.6304266666667,-96.98076,11.3,18.2,225,978.01,2.7,86,3.42,0.0,1005.44,194.5
2018-10-15 22:00,50.6304366666667,-96.980765,14.3,18.2,227,977.96,3.1,80,3.42,0.0,1005.37,270.0
2018-10-15 22:10,50.6304333333333,-96.9807583333333,11.3,18.0,228,978.03,3.3,79,3.42,0.0,1005.42,270.0
2018-10-15 22:20,50.6304283333333,-96.9807566666667,12.0,17.7,231,978.11,3.3,78,3.43,0.0,1005.50,270.0
2018-10-15 22:30,50.63043,-96.98075,10.8,16.7,233,978.17,3.3,78,3.44,0.0,1005.57,270.0
2018-10-15 22:40,50.6304266666667,-96.98075,9.8,13.4,240,978.38,3.4,78,3.45,0.0,1005.77,270.0
2018-10-15 22:50,50.6304283333333,-96.98075,8.6,14.8,245,978.47,3.4,79,3.45,0.0,1005.85,270.0
2018-10-15 23:00,50.6304283333333,-96.9807483333333,8.9,12.9,245,978.55,3.4,79,3.45,0.0,1005.92,38.0
2018-10-15 23:10,50.6304283333333,-96.9807466666667,8.3,15.2,245,978.59,3.5,79,3.45,0.0,1005.94,38.0
2018-10-15 23:20,50.6304283333333,-96.9807466666667,7.8,11.3,249,978.68,3.6,78,3.45,0.0,1006.00,38.0
2018-10-15 23:30,50.63042,-96.980745,7.3,12.0,250,978.75,3.7,78,3.46,0.0,1006.06,38.0
2018-10-15 23:40,50.6304283333333,-96.9807433333333,7.5,10.9,256,978.76,3.7,78,3.46,0.0,1006.05,38.0
